Regional Weather Roundup
Issued by NWS

Home | Current Version | Previous Version | Text Only | Print | Product List | Glossary Off
Versions: 1 2 3 4 5 6 7 8 9 10 11 12 13 14 15 16 17 18 19 20 21 22 23 24 25 26 27 28 29 30 31 32 33 34 35 36 37 38 39 40 41 42 43 44 45 46 47 48 49 50

000
ASUS45 KPSR 030900
RWRAZ

ARIZONA HOURLY REGIONAL WEATHER ROUNDUP
NATIONAL WEATHER SERVICE PHOENIX AZ
200 AM MST MON AUG 03 2015

NOTE: FAIR INDICATES FEW OR NO CLOUDS BELOW 12,000 FEET WITH NO
SIGNIFICANT WEATHER AND/OR OBSTRUCTIONS TO VISIBILITY.

AZZ001>003-036-031000-
NORTHWEST ARIZONA

CITY           SKY/WX    TMP DP  RH WIND       PRES   REMARKS
KINGMAN        CLEAR     80  44  27 VRB3      29.95S
$$

AZZ004>008-015-016-018-031000-
NORTH CENTRAL ARIZONA

CITY           SKY/WX    TMP DP  RH WIND       PRES   REMARKS
GRAND CANYON   CLEAR     51  49  92 CALM      30.22S
WILLIAMS       CLEAR     52  50  93 S9        30.29S
PRESCOTT       CLEAR     68  48  48 S10       30.10F
FLAGSTAFF      NOT AVBL
PAGE           CLEAR     68  60  75 CALM      30.04F
$$

AZZ009>014-017-031000-
NORTHEAST ARIZONA

CITY           SKY/WX    TMP DP  RH WIND       PRES   REMARKS
WINSLOW        NOT AVBL
SAINT JOHNS    CLEAR     60  54  80 CALM      30.17R
$$

AZZ023-031000-
GREATER PHOENIX AREA

CITY           SKY/WX    TMP DP  RH WIND       PRES   REMARKS
PHOENIX        PTCLDY    95  54  25 NW5       29.75S
DEER VALLEY    CLEAR     91  52  26 SW6       29.78S
SCOTTSDALE     CLEAR     91  51  25 CALM      29.81R
$$

AZZ027-028-031000-
SOUTHWEST MARICOPA COUNTY AND PINAL COUNTY

CITY           SKY/WX    TMP DP  RH WIND       PRES   REMARKS
CASA GRANDE    CLEAR     82  63  51 CALM      29.80S
GILA BEND      FAIR      89  53  29 S8        29.76R
$$

AZZ503-504-507>509-031000-
SOUTHEAST ARIZONA

CITY           SKY/WX    TMP DP  RH WIND       PRES   REMARKS
TUCSON         CLEAR     83  61  47 SE8       29.93S
DAVIS-MONTHAN  CLEAR     82  60  46 S8        29.92S
NOGALES        CLEAR     71  60  68 CALM      30.04S
SIERRA VISTA   PTCLDY    70  59  66 SE5       30.09S
SAFFORD        PTCLDY    78  56  46 E9        29.95S
$$

AZZ020-021-025-026-031-031000-
SOUTHWEST ARIZONA

CITY           SKY/WX    TMP DP  RH WIND       PRES   REMARKS
YUMA           CLEAR     89  54  30 S5        29.71F
$$

CAZ031-033-041-043-047-048-061-031000-
SOUTHERN CALIFORNIA

CITY           SKY/WX    TMP DP  RH WIND       PRES   REMARKS
DOWNTOWN L.A.  CLEAR     70  62  76 CALM      29.86S
L.A. AIRPORT   PTCLDY    69  64  84 SE3       29.87S
SAN DIEGO      CLOUDY    70  63  78 CALM      29.88F
BURBANK        CLEAR     69  62  78 E3        29.88R
ONTARIO        PTCLDY    69  62  78 VRB5      29.88F
RIVERSIDE      CLEAR     70  63  78 CALM      29.88F
PALM SPRINGS   CLEAR     88  57  34 CALM      29.74S
EL CENTRO NAS  CLEAR     88  39  17 W8        29.70S
IMPERIAL       CLEAR     86  43  22 W7        29.67F
BLYTHE         CLEAR     92  51  24 SW7       29.71S
$$

NVZ020-UTZ003-031000-
SOUTHERN NEVADA-UTAH

CITY           SKY/WX    TMP DP  RH WIND       PRES   REMARKS
LAS VEGAS      NOT AVBL
SALT LAKE CITY LGT RAIN  70  56  61 S17G26    30.01R
$$

NMZ009-TXZ055-031000-
NEW MEXICO-WEST TEXAS

CITY           SKY/WX    TMP DP  RH WIND       PRES   REMARKS
ALBUQUERQUE    MOCLDY    67  59  75 NE10      30.13F
EL PASO        MOCLDY    74  64  71 S6        30.00F
$$


........................KEY........................
SKY/WX - SKY CONDITION/WEATHER
TMP    - TEMPERATURE IN FAHRENHEIT
DP     - DEW POINT IN FAHRENHEIT
RH     - RELATIVE HUMIDITY IN PERCENT
WIND   - DIRECTION AND SPEED IN MILES PER HOUR (MPH)
VRB    - VARIABLE WIND DIRECTION
PRES   - MEAN SEA LEVEL PRESSURE IN INCHES OF MERCURY
         F - FALLING PRESSURE   R - RISING PRESSURE
         S - STEADY PRESSURE
VSB    - VISIBILITY IN MILES
HX     - HEAT INDEX IN FAHRENHEIT
WCI    - WIND CHILL INDEX IN FAHRENHEIT
TC     - TEMPERATURE IN CELSIUS WHICH IS ALSO KNOWN AS
         TEMPERATURE IN CENTIGRADE
AFB    - AIR FORCE BASE
         LUKE AFB IS LUKE AIR FORCE BASE
         DAVIS-MONTHAN IS DAVIS-MONTHAN AIR FORCE BASE
NAS    - NAVAL AIR STATION
         EL CENTRO NAS IS EL CENTRO NAVAL AIR STATION
N/A    - NOT AVAILABLE




USA.gov is the U.S. government's official web portal to all federal, state and local government web resources and services.